Regional Weather Roundup
Issued by NWS

Home | Current Version | Previous Version | Graphics & Text | Print | Product List | Glossary On
Versions: 1 2 3 4 5 6 7 8 9 10 11 12 13 14 15 16 17 18 19 20 21 22 23 24 25 26 27 28 29 30 31 32 33 34 35 36 37 38 39 40 41 42 43 44 45 46 47 48 49 50
627
ASUS45 KSLC 161910
RWRUT

UTAH REGIONAL WEATHER ROUNDUP
NATIONAL WEATHER SERVICE SALT LAKE CITY UT
100 PM MDT WED AUG 16 2017

UTZ001>011-023>025-162000-

NORTHERN UTAH

CITY           SKY/WX    TMP DP  RH WIND       PRES   REMARKS
BRIGHAM CITY   SUNNY     80  38  22 SW5       30.09F
HILL AFB       MOSUNNY   80  37  21 NE3       30.11F
LOGAN          SUNNY     79  44  28 CALM      30.09F
OGDEN          MOSUNNY   79  39  23 CALM      30.09S
SALT LAKE CITY PTSUNNY   82  37  20 VRB5      30.06F
TOOELE VALLEY  MOSUNNY   82  32  16 N7        30.08S
WENDOVER       PTSUNNY   79  37  22 E9        30.08S
HEBER CITY     SUNNY     75  34  22 CALM      30.15F
WEST JORDAN    MOSUNNY   80  48  32 CALM      30.10S

$$

UTZ011>015-024>027-162000-

CENTRAL/NORTHEAST UTAH

CITY           SKY/WX    TMP DP  RH WIND       PRES   REMARKS
PROVO AIRPORT  SUNNY     76  45  33 W5        30.11S HAZE
MOAB/CANYONLAN SUNNY     84  36  18 S5        30.06F
DELTA          SUNNY     81  32  17 N5        30.10F
PRICE          SUNNY     76  37  24 VRB6      30.16F
RICHFIELD      SUNNY     81  39  22 NE9       30.13F
ROOSEVELT      SUNNY     72  46  40 SE5       30.18F
VERNAL         SUNNY     71  50  47 CALM      30.17F

$$

UTZ013>016-019>022-027-162000-

SOUTHERN UTAH

CITY           SKY/WX    TMP DP  RH WIND       PRES   REMARKS
BRYCE CANYON   MOSUNNY   74  32  21 SE14      30.28F
CEDAR CITY     SUNNY     80  35  19 S3        30.14F
MILFORD        SUNNY     85  30  13 S9        30.10F
ST GEORGE      CLEAR     87  41  19 W6        29.98F
HANKSVILLE     MOSUNNY   82  36  18 N3        30.09F
KANAB          SUNNY     84  30  14 S8        30.15F
BLANDING       SUNNY     78  30  17 S9        30.25S

$$

REGIONAL REPORTS     COLORADO/ARIZONA

CITY           SKY/WX    TMP DP  RH WIND       PRES   REMARKS
CRAIG, CO      SUNNY     73  41  31 CALM      30.20F
GRAND JUNCTION SUNNY     82  38  20 NW7       30.10F
RIFLE, CO      PTSUNNY   79  35  20 NW7       30.13F
MONTROSE, CO   SUNNY     77  33  20 N7        30.16F
CORTEZ, CO     SUNNY     80  29  15 S9G16     30.18F
COLORADO CITY    N/A     84  32  15 E3        30.15S
PAGE, AZ       SUNNY     86  30  13 E5        30.07F
GRAND CANYON   MOSUNNY   75  26  16 S8        30.25F
KINGMAN, AZ    SUNNY     87  39  18 SW10G17   30.02F
FLAGSTAFF, AZ  PTSUNNY   69  32  25 SW7       30.29F

$$

REGIONAL REPORTS    NEVADA/IDAHO/WYOMING

CITY           SKY/WX    TMP DP  RH WIND       PRES   REMARKS
LAS VEGAS, NV  MOSUNNY   93  38  14 VRB3      29.93F
ELY, NY        CLOUDY    72  39  30 S17       30.20R
ELKO, NV       PTSUNNY   80  31  16 VRB3      30.11F
POCATELLO, ID  SUNNY     82  34  17 W8        30.10S
BURLEY, ID     SUNNY     78  41  26 W6        30.06F
FORT BRIDGER,    N/A     72  35  26 NW3       30.27F
EVANSTON, WY   SUNNY     73  32  22 MISG      30.25S
ROCK SPRINGS,  MOSUNNY   68  42  38 MISG      30.23F
KEMMERER, WY     N/A     70  30  23 W5        30.26S

$$




USA.gov is the U.S. government's official web portal to all federal, state and local government web resources and services.